Regional Weather Roundup
Issued by NWS

Home | Current Version | Previous Version | Graphics & Text | Print | Product List | Glossary On
Versions: 1 2 3 4 5 6 7 8 9 10 11 12 13 14 15 16 17 18 19 20 21 22 23 24 25 26 27 28 29 30 31 32 33 34 35 36 37 38 39 40 41 42 43 44 45 46 47 48 49 50
000
ASUS43 KDTX 210101
RWRMI
MICHIGAN HOURLY REGIONAL WEATHER ROUNDUP
NATIONAL WEATHER SERVICE DETROIT/PONTIAC MI
900 PM EDT MON APR 20 2015

NOTE: "FAIR" INDICATES FEW OR NO CLOUDS BELOW 12,000 FEET WITH NO
SIGNIFICANT WEATHER AND/OR OBSTRUCTION TO VISIBILITY.

MIZ047>049-052>055-059>063-066>070-074>076-081>083-210200-
SOUTHEAST LOWER MICHIGAN

CITY           SKY/WX    TMP DP  RH WIND       PRES   REMARKS
ADRIAN         LGT RAIN  46  41  82 NW13      29.57R
ALMA           FLURRIES  43  40  89 SW14G20   29.49R
ANN ARBOR      CLOUDY    46  40  79 W20G28    29.54R
BAD AXE        CLOUDY    44  37  76 SW18G29   29.44R
CARO           CLOUDY    45  37  75 SW12G21   29.45R
DETROIT CITY   CLOUDY    48  38  68 W15G25    29.53R
DETROIT        CLOUDY    48  42  80 SW12      29.55R
FLINT          CLOUDY    47  37  68 W20G28    29.50R
GROSSE ILE     CLOUDY    46  43  87 W16G28    29.54R
HILLSDALE      MIX PCPN  45  41  87 W10G18    29.55R
HOWELL         DRIZZLE   44  40  88 W15G23    29.52R

CITY           SKY/WX    TMP DP  RH WIND       PRES   REMARKS
JACKSON        CLOUDY    44  39  82 W16       29.54R
LAMBERTVILLE   CLOUDY    48  39  71 W14G29    29.57R
LANSING        LGT RAIN  43  38  82 W21G30    29.53R
LAPEER         CLOUDY    46  36  69 W20G26    29.49R
MASON          DRIZZLE   43  37  82 W13G20    29.53R
MONROE         CLOUDY    48  39  71 W20G26    29.55R
PONTIAC        CLOUDY    45  38  76 W18G24    29.50R
PORT HOPE        N/A     46  38  73 SW14G24   29.39R
PORT HURON     MOCLDY    46  39  76 W9        29.50R
TRI CITIES     CLOUDY    45  37  73 SW21      29.46R
TROY           CLOUDY    48  40  73 W12G20    29.53R
SAGINAW HB     CLOUDY    45  37  76 SW18G25   29.46R
$$
MIZ043>046-050>051-056>058-064>065-071>073-077>080-210200-
SOUTHWEST LOWER MICHIGAN

CITY           SKY/WX    TMP DP  RH WIND       PRES   REMARKS
BATTLE CREEK   CLOUDY    44  38  79 W14       29.55R
BENTON HARBOR  CLOUDY    41  36  82 W14       29.58R
BIG RAPIDS     LGT RAIN  40  38  91 W10G18    29.45R WCI  34
COLDWATER      CLOUDY    44  37  74 W16       29.56R
FREMONT        CLOUDY    40  39  95 W8        29.49R WCI  35
HOLLAND        CLOUDY    44  34  67 W22G32    29.55R
GRAND RAPIDS   LGT RAIN  41  39  93 W17       29.52R
IONIA          LGT RAIN  42  40  93 W17       29.51R
KALAMAZOO      CLOUDY    44  36  73 W13G25    29.57R
LUDINGTON      LGT RAIN  40  37  89 W6        29.46R
MARSHALL       CLOUDY    42  37  83 W12G21    29.55R
MOUNT PLEASANT FLURRIES  42  38  83 SW15G21   29.45R
MUSKEGON       CLOUDY    41  36  82 W14G21    29.51R
SOUTH HAVEN    CLOUDY    43  36  75 W12G22    29.57R
$$
MIZ016>042-210200-
NORTHERN LOWER MICHIGAN

CITY           SKY/WX    TMP DP  RH WIND       PRES   REMARKS
ALPENA         LGT RAIN  46  40  79 W13G24    29.34R
BEAVER ISLAND  CLOUDY    35  34  96 SW14      29.35R WCI  26
BELLAIRE       MIX PCPN  38  35  90 SW5       29.40R WCI  34
CADILLAC       DRIZZLE   37  35  92 W13       29.41R WCI  29
CHARLEVOIX     LGT RAIN  36  36 100 SW14G26   29.40R WCI  27
FRANKFORT      LGT RAIN  40  35  81 SW3       29.42R
GAYLORD        LGT RAIN  36  36 100 W21G28    29.35R WCI  25
GRAYLING       LGT RAIN  37  35  92 W12G20    29.39R WCI  29
HARBOR SPRINGS LGT RAIN  35  34  96 SW13G21   29.36R WCI  26
HOUGHTON LAKE  CLOUDY    39  34  82 W20G33    29.40R WCI  29
MANISTEE       CLOUDY    39  36  87 W7        29.44S WCI  34
OSCODA         CLOUDY    46  38  73 SW21      29.36R
PELLSTON       LGT RAIN  36  34  92 W15G24    29.34R WCI  27
ROGERS CITY    CLOUDY    42  38  86 W12G18    29.34R
TRAVERSE CITY  LGT RAIN  39  35  86 W9G17     29.40R WCI  33
$$
MIZ007>008-015-210200-
EASTERN UPPER MICHIGAN

CITY           SKY/WX    TMP DP  RH WIND       PRES   REMARKS
KINROSS        CLOUDY    37  37 100 W7        29.28R WCI  32
MACKINAC ISLAN LGT SNOW  37  37 100 W8        29.31R WCI  30
NEWBERRY       CLOUDY    35  34  95 W10       29.29R WCI  27
S. S. MARIE    CLOUDY    36  33  89 W8        29.27R WCI  30
$$
MIZ004>006-011>014-085-210200-
CENTRAL UPPER MICHIGAN

CITY           SKY/WX    TMP DP  RH WIND       PRES   REMARKS
MANISTIQUE     DRIZZLE   37  35  95 W7        29.32R WCI  31
ESCANABA       CLOUDY    37  34  87 SW3       29.35R
MENOMINEE      MOCLDY    39  34  81 W13G21    29.38R WCI  32
SAWYER-GWINN   FLURRIES  34  32  93 W8        29.29R WCI  27
$$
MIZ001>003-009>011-084-210200-
WESTERN UPPER MICHIGAN

CITY           SKY/WX    TMP DP  RH WIND       PRES   REMARKS
IRON MOUNTAIN  CLOUDY    38  31  76 W10G17    29.32R WCI  31
HOUGHTON       LGT SNOW  33  30  88 W23G36    29.26R FOG     WCI  21
COPPER HARBOR    N/A     35  32  88 NW14G28   29.23R WCI  26
IRONWOOD       CLOUDY    36  27  69 W14G22    29.33S WCI  27
$$

ABBREVIATIONS USED IN REMARKS
   TC - TEMPERATURE IN CELSIUS
  WCI - WIND CHILL INDEX
   HX - HEAT INDEX
  VSB - VISIBILITY



USA.gov is the U.S. government's official web portal to all federal, state and local government web resources and services.